Weather History for Orangeburg, SC

Change the Weather History Date:

Friday, February 24, 2012

  Actual Average Record
Temperature  
Mean Temperature 67 °F 51 °F  
Max Temperature 81 °F 63 °F 82 °F (1962)
Min Temperature 53 °F 40 °F 21 °F (1963)
Degree Days  
Heating Degree Days 0 14  
Month to date heating degree days 303 383  
Since 1 July heating degree days 1532 1880  
Cooling Degree Days 2 0  
Month to date cooling degree days 8 0  
Year to date cooling degree days 8 1  
Growing Degree Days 18 (Base 50)    
Moisture  
Dew Point 59 °F    
Average Humidity 68    
Maximum Humidity 78    
Minimum Humidity 43    
Precipitation  
Precipitation 0.16 in 0.15 in 0.54 in (1977)
Month to date precipitation 1.31 2.98  
Year to date precipitation 3.08 6.96  
Sea Level Pressure  
Sea Level Pressure 29.74 in    
Wind  
Wind Speed 15 mph (WSW)    
Max Wind Speed 28 mph    
Max Gust Speed 37 mph    
Visibility 9 miles    
Events Rain    
T = Trace of Precipitation, MM = Missing Value Source: NWS Daily Summary

Daily Weather History Graph

Daily Weather History Graph

Search for Another Location

Airport:

Trip Planner

Search our weather history database for the weather conditions in past years. The results will help you decide how hot, cold, wet, or windy it might be!

Date:

Astronomy

Feb. 24, 2012 Rise Set
Actual Time 6:58 AM EST 6:15 PM EST
Civil Twilight 6:33 AM EST 6:40 PM EST
Nautical Twilight 6:04 AM EST 7:09 PM EST
Astronomical Twilight 5:35 AM EST 7:38 PM EST
Moon 8:03 AM EST (2/24) 9:04 PM EST (2/24)
Length of Visible Light 12h 07m
Length of Day
11h 17m
Waxing Crescent, 7% of the Moon is Illuminated
Feb 24
Waxing Crescent
Feb 29
First Quarter
Mar 8
Full
Mar 14
Last Quarter
Mar 22
New

Hourly Weather History & Observations

Time (EST) Temp. Heat Index Dew Point Humidity Pressure Visibility Wind Dir Wind Speed Gust Speed Precip Events Conditions
12:53 AM 73.0 °F - 63.0 °F 71% 29.70 in 10.0 mi SW 16.1 mph 26.5 mph N/A   Overcast
1:53 AM 73.0 °F - 63.0 °F 71% 29.70 in 10.0 mi SW 16.1 mph 28.8 mph N/A   Overcast
2:51 AM 73.4 °F - 62.6 °F 69% 29.70 in 10.0 mi SW 17.3 mph 24.2 mph N/A   Overcast
2:53 AM 73.0 °F - 63.0 °F 71% 29.70 in 10.0 mi SW 20.7 mph 29.9 mph N/A   Overcast
3:53 AM 73.0 °F - 64.0 °F 73% 29.69 in 10.0 mi WSW 16.1 mph 26.5 mph N/A   Overcast
4:53 AM 72.0 °F - 63.0 °F 73% 29.71 in 10.0 mi WSW 15.0 mph 23.0 mph N/A   Mostly Cloudy
5:53 AM 72.0 °F - 63.0 °F 73% 29.71 in 10.0 mi WSW 15.0 mph 21.9 mph 0.00 in   Mostly Cloudy
6:53 AM 72.0 °F - 63.0 °F 73% 29.73 in 10.0 mi WSW 12.7 mph - N/A   Mostly Cloudy
7:53 AM 73.0 °F - 63.0 °F 71% 29.74 in 10.0 mi SW 17.3 mph 24.2 mph N/A   Scattered Clouds
8:01 AM 73.4 °F - 62.6 °F 69% 29.75 in 10.0 mi SW 16.1 mph 24.2 mph N/A   Mostly Cloudy
8:10 AM 73.4 °F - 62.6 °F 69% 29.74 in 10.0 mi SW 16.1 mph 21.9 mph 0.00 in Rain Light Rain
8:53 AM 73.0 °F - 63.0 °F 71% 29.75 in 10.0 mi SW 17.3 mph - 0.00 in   Mostly Cloudy
9:51 AM 73.4 °F - 62.6 °F 69% 29.77 in 10.0 mi SW 13.8 mph 25.3 mph N/A   Mostly Cloudy
9:53 AM 73.9 °F - 63.0 °F 68% 29.76 in 10.0 mi WSW 18.4 mph 26.5 mph N/A   Mostly Cloudy
10:10 AM 73.4 °F - 64.4 °F 73% 29.76 in 10.0 mi SW 10.4 mph - 0.00 in Rain Light Rain
10:53 AM 75.9 °F - 64.0 °F 67% 29.74 in 10.0 mi SW 21.9 mph 28.8 mph 0.00 in   Mostly Cloudy
11:53 AM 77.0 °F - 64.0 °F 64% 29.71 in 10.0 mi SSW 11.5 mph 24.2 mph N/A   Partly Cloudy
12:53 PM 78.1 °F - 63.0 °F 60% 29.68 in 10.0 mi SW 12.7 mph 23.0 mph N/A   Scattered Clouds
1:53 PM 80.1 °F 80.7 °F 59.0 °F 48% 29.67 in 10.0 mi WSW 24.2 mph 33.4 mph N/A   Overcast
2:53 PM 73.9 °F - 59.0 °F 59% 29.66 in 10.0 mi WNW 6.9 mph - N/A   Mostly Cloudy
3:53 PM 69.1 °F - 63.0 °F 81% 29.67 in 3.0 mi NW 11.5 mph - N/A Rain Heavy Rain
4:00 PM 69.8 °F - 62.6 °F 78% 29.68 in 2.5 mi West 17.3 mph 21.9 mph 0.02 in Rain Heavy Rain
4:08 PM 69.8 °F - 62.6 °F 78% 29.66 in 4.0 mi West 20.7 mph 33.4 mph 0.04 in Rain Rain
4:53 PM 69.1 °F - 63.0 °F 81% 29.69 in 9.0 mi West 12.7 mph 20.7 mph 0.06 in Rain Light Rain
5:19 PM 68.0 °F - 64.4 °F 88% 29.71 in 10.0 mi NW 15.0 mph 23.0 mph 0.02 in   Overcast
5:38 PM 66.2 °F - 60.8 °F 83% 29.74 in 10.0 mi West 16.1 mph 27.6 mph 0.02 in   Overcast
5:53 PM 64.9 °F - 57.9 °F 78% 29.74 in 10.0 mi West 16.1 mph 27.6 mph 0.02 in   Overcast
6:53 PM 62.1 °F - 55.9 °F 80% 29.79 in 10.0 mi West 11.5 mph - N/A   Overcast
7:53 PM 61.0 °F - 43.0 °F 52% 29.83 in 10.0 mi West 19.6 mph 26.5 mph N/A   Mostly Cloudy
8:53 PM 57.9 °F - 44.1 °F 60% 29.87 in 10.0 mi West 17.3 mph 21.9 mph N/A   Partly Cloudy
9:53 PM 57.0 °F - 39.0 °F 51% 29.90 in 10.0 mi WNW 15.0 mph 24.2 mph N/A   Clear
10:53 PM 55.0 °F - 33.1 °F 43% 29.93 in 10.0 mi WNW 11.5 mph 24.2 mph N/A   Clear
11:53 PM 53.1 °F - 30.0 °F 41% 29.95 in 10.0 mi WNW 12.7 mph 24.2 mph N/A   Partly Cloudy